Location: Mercogliano
(40.9167°N, 14.7333°E)
Time: 06:43:43
(UTC+00:00)

Cosmos 2150 Rocket - Pass Details

Date: 19 January 2021
Orbit: 748 x 808 km, 74.0° (Epoch: 06 March)

Event Time Altitude Azimuth Distance (km) Brightness Sun altitude
Rises 05:38:30 0° 344° (NNW) 3,261 6.9 -8.3°
Reaches altitude 10° 05:40:54 10° 348° (NNW) 2,339 6.2 -7.9°
Maximum altitude 05:46:10 60° 68° (ENE) 898 4.7 -7.0°
Drops below altitude 10° 05:51:29 10° 149° (SSE) 2,361 7.4 -6.0°
Sets 05:53:55 0° 152° (SSE) 3,294 8.2 -5.6°
